Time,TemperatureF,DewpointF,PressureIn,WindDirection,WindDirectionDegrees,WindSpeedMPH,WindSpeedGustMPH,Humidity,HourlyPrecipIn,Conditions,Clouds,dailyrainin,SolarRadiationWatts/m^2,SoftwareType,DateUTC
2013-09-02 00:01:00,62.4,56.5,29.69,South,186,0.0,0.0,81,0.00,,,0.00,0,Wunderground v.1.15,2013-09-02 06:01:00,
2013-09-02 00:06:00,62.3,56.4,29.69,South,186,0.0,0.0,81,0.00,,,0.00,0,Wunderground v.1.15,2013-09-02 06:06:00,
2013-09-02 00:11:00,62.3,56.7,29.69,South,186,0.0,0.0,82,0.00,,,0.00,0,Wunderground v.1.15,2013-09-02 06:11:00,
2013-09-02 00:16:00,62.3,56.7,29.68,South,186,0.0,0.0,82,0.00,,,0.00,0,Wunderground v.1.15,2013-09-02 06:16:00,
2013-09-02 00:21:00,62.1,56.2,29.68,South,186,0.0,0.0,81,0.00,,,0.00,0,Wunderground v.1.15,2013-09-02 06:21:00,
2013-09-02 00:26:00,62.0,56.1,29.68,South,186,0.0,0.0,81,0.00,,,0.00,0,Wunderground v.1.15,2013-09-02 06:26:00,
2013-09-02 00:31:00,62.0,56.4,29.69,South,186,0.0,0.0,82,0.00,,,0.00,0,Wunderground v.1.15,2013-09-02 06:31:00,
2013-09-02 00:35:00,61.8,56.2,29.69,South,186,0.0,0.0,82,0.00,,,0.00,0,Wunderground v.1.15,2013-09-02 06:35:00,
2013-09-02 00:40:00,61.6,56.0,29.69,South,186,0.0,0.0,82,0.00,,,0.00,0,Wunderground v.1.15,2013-09-02 06:40:00,
2013-09-02 00:45:00,61.5,56.0,29.68,South,186,0.0,0.0,82,0.00,,,0.00,0,Wunderground v.1.15,2013-09-02 06:45:00,
2013-09-02 00:50:00,61.3,56.1,29.68,South,186,0.0,0.0,83,0.00,,,0.00,0,Wunderground v.1.15,2013-09-02 06:50:00,
2013-09-02 00:55:00,61.3,56.1,29.68,South,186,0.0,0.0,83,0.00,,,0.00,0,Wunderground v.1.15,2013-09-02 06:55:00,
2013-09-02 01:00:00,61.2,56.0,29.68,South,186,0.0,0.0,83,0.00,,,0.00,0,Wunderground v.1.15,2013-09-02 07:00:00,
2013-09-02 01:05:00,61.2,56.0,29.68,South,186,0.0,0.0,83,0.00,,,0.00,0,Wunderground v.1.15,2013-09-02 07:05:00,
2013-09-02 01:10:00,61.0,55.8,29.68,South,186,0.0,0.0,83,0.00,,,0.00,0,Wunderground v.1.15,2013-09-02 07:10:00,
2013-09-02 01:15:00,61.0,55.8,29.68,South,186,0.0,0.0,83,0.00,,,0.00,0,Wunderground v.1.15,2013-09-02 07:15:00,
2013-09-02 01:20:00,60.9,55.7,29.68,South,186,0.0,0.0,83,0.00,,,0.00,0,Wunderground v.1.15,2013-09-02 07:20:00,
2013-09-02 01:25:00,60.7,55.5,29.68,South,186,0.0,0.0,83,0.00,,,0.00,0,Wunderground v.1.15,2013-09-02 07:25:00,
2013-09-02 01:30:00,60.5,55.3,29.68,South,186,0.0,0.0,83,0.00,,,0.00,0,Wunderground v.1.15,2013-09-02 07:30:00,
2013-09-02 01:35:00,60.5,55.3,29.68,South,186,0.0,0.0,83,0.00,,,0.00,0,Wunderground v.1.15,2013-09-02 07:35:00,
2013-09-02 01:40:00,60.4,55.2,29.68,South,186,0.0,0.0,83,0.00,,,0.00,0,Wunderground v.1.15,2013-09-02 07:40:00,
2013-09-02 01:45:00,60.4,55.2,29.68,South,186,0.0,0.0,83,0.00,,,0.00,0,Wunderground v.1.15,2013-09-02 07:45:00,
2013-09-02 01:50:00,60.2,55.0,29.68,South,186,0.0,0.0,83,0.00,,,0.00,0,Wunderground v.1.15,2013-09-02 07:50:00,
2013-09-02 01:55:00,60.2,55.0,29.68,South,186,0.0,0.0,83,0.00,,,0.00,0,Wunderground v.1.15,2013-09-02 07:55:00,
2013-09-02 02:00:00,60.2,55.0,29.68,South,186,0.0,0.0,83,0.00,,,0.00,0,Wunderground v.1.15,2013-09-02 08:00:00,
2013-09-02 02:05:00,60.2,55.0,29.68,South,186,0.0,0.0,83,0.00,,,0.00,0,Wunderground v.1.15,2013-09-02 08:05:00,
2013-09-02 02:10:00,60.4,55.5,29.68,South,186,0.0,0.0,84,0.00,,,0.00,0,Wunderground v.1.15,2013-09-02 08:10:00,
2013-09-02 02:15:00,60.4,55.5,29.68,South,186,0.0,0.0,84,0.00,,,0.00,0,Wunderground v.1.15,2013-09-02 08:15:00,
2013-09-02 02:20:00,60.4,55.5,29.68,South,186,0.0,0.0,84,0.00,,,0.00,0,Wunderground v.1.15,2013-09-02 08:20:00,
2013-09-02 02:25:00,60.5,55.6,29.68,South,186,0.0,0.0,84,0.00,,,0.00,0,Wunderground v.1.15,2013-09-02 08:25:00,
2013-09-02 02:30:00,60.5,55.6,29.68,South,186,0.0,0.0,84,0.00,,,0.00,0,Wunderground v.1.15,2013-09-02 08:30:00,
2013-09-02 02:35:00,60.5,55.6,29.68,South,186,0.0,0.0,84,0.00,,,0.00,0,Wunderground v.1.15,2013-09-02 08:35:00,
2013-09-02 02:40:00,60.7,55.8,29.68,South,186,0.0,0.0,84,0.00,,,0.00,0,Wunderground v.1.15,2013-09-02 08:40:00,
2013-09-02 02:45:00,60.7,55.8,29.68,South,186,0.0,0.0,84,0.00,,,0.00,0,Wunderground v.1.15,2013-09-02 08:45:00,
2013-09-02 02:50:00,60.7,55.5,29.68,South,186,0.0,0.0,83,0.00,,,0.00,0,Wunderground v.1.15,2013-09-02 08:50:00,
2013-09-02 02:55:00,60.7,55.5,29.68,South,186,0.0,0.0,83,0.00,,,0.00,0,Wunderground v.1.15,2013-09-02 08:55:00,
2013-09-02 03:00:00,60.7,55.2,29.68,South,186,0.0,0.0,82,0.00,,,0.00,0,Wunderground v.1.15,2013-09-02 09:00:00,
2013-09-02 03:05:00,60.7,54.8,29.68,South,186,0.0,0.0,81,0.00,,,0.00,0,Wunderground v.1.15,2013-09-02 09:05:00,
2013-09-02 03:10:00,60.9,55.0,29.68,South,186,0.0,0.0,81,0.00,,,0.00,0,Wunderground v.1.15,2013-09-02 09:10:00,
2013-09-02 03:15:00,60.9,55.0,29.69,South,186,0.0,0.0,81,0.00,,,0.00,0,Wunderground v.1.15,2013-09-02 09:15:00,
2013-09-02 03:20:00,60.9,55.0,29.69,South,186,0.0,0.0,81,0.00,,,0.00,0,Wunderground v.1.15,2013-09-02 09:20:00,
2013-09-02 03:25:00,60.9,55.0,29.69,South,186,0.0,0.0,81,0.00,,,0.00,0,Wunderground v.1.15,2013-09-02 09:25:00,
2013-09-02 03:30:00,60.9,55.0,29.69,South,186,0.0,0.0,81,0.00,,,0.00,0,Wunderground v.1.15,2013-09-02 09:30:00,
2013-09-02 03:35:00,60.9,55.0,29.69,South,186,0.0,0.0,81,0.00,,,0.00,0,Wunderground v.1.15,2013-09-02 09:35:00,
2013-09-02 03:40:00,60.9,55.0,29.69,South,186,0.0,0.0,81,0.00,,,0.00,0,Wunderground v.1.15,2013-09-02 09:40:00,
2013-09-02 03:45:00,60.7,54.8,29.69,South,186,0.0,0.0,81,0.00,,,0.00,0,Wunderground v.1.15,2013-09-02 09:45:00,
2013-09-02 03:50:00,60.7,54.8,29.69,South,186,0.0,0.0,81,0.00,,,0.00,0,Wunderground v.1.15,2013-09-02 09:50:00,
2013-09-02 03:55:00,60.5,54.6,29.69,South,186,0.0,0.0,81,0.00,,,0.00,0,Wunderground v.1.15,2013-09-02 09:55:00,
2013-09-02 04:00:00,60.5,54.6,29.69,South,186,0.0,0.0,81,0.00,,,0.00,0,Wunderground v.1.15,2013-09-02 10:00:00,
2013-09-02 04:05:00,60.4,54.9,29.69,South,186,0.0,0.0,82,0.00,,,0.00,0,Wunderground v.1.15,2013-09-02 10:05:00,
2013-09-02 04:10:00,60.2,54.7,29.69,South,186,0.0,0.0,82,0.00,,,0.00,0,Wunderground v.1.15,2013-09-02 10:10:00,
2013-09-02 04:15:00,60.1,54.6,29.69,South,186,0.0,0.0,82,0.00,,,0.00,0,Wunderground v.1.15,2013-09-02 10:15:00,
2013-09-02 04:20:00,60.1,54.9,29.69,South,186,0.0,0.0,83,0.00,,,0.00,0,Wunderground v.1.15,2013-09-02 10:20:00,
2013-09-02 04:25:00,60.1,54.9,29.69,South,186,0.0,0.0,83,0.00,,,0.00,0,Wunderground v.1.15,2013-09-02 10:25:00,
2013-09-02 04:30:00,59.9,54.7,29.69,South,186,0.0,0.0,83,0.00,,,0.00,0,Wunderground v.1.15,2013-09-02 10:30:00,
2013-09-02 04:35:00,59.9,54.7,29.69,South,186,0.0,0.0,83,0.00,,,0.00,0,Wunderground v.1.15,2013-09-02 10:35:00,
2013-09-02 04:40:00,59.8,54.6,29.69,South,186,0.0,0.0,83,0.00,,,0.00,0,Wunderground v.1.15,2013-09-02 10:40:00,
2013-09-02 04:45:00,59.8,54.6,29.68,South,186,0.0,0.0,83,0.00,,,0.00,0,Wunderground v.1.15,2013-09-02 10:45:00,
2013-09-02 04:50:00,59.6,54.4,29.68,South,186,0.0,0.0,83,0.00,,,0.00,0,Wunderground v.1.15,2013-09-02 10:50:00,
2013-09-02 04:55:00,59.5,54.7,29.68,South,186,0.0,0.0,84,0.00,,,0.00,0,Wunderground v.1.15,2013-09-02 10:55:00,
2013-09-02 05:00:00,59.3,54.5,29.69,South,186,0.0,0.0,84,0.00,,,0.00,0,Wunderground v.1.15,2013-09-02 11:00:00,
2013-09-02 05:05:00,59.2,54.4,29.69,South,186,0.0,0.0,84,0.00,,,0.00,0,Wunderground v.1.15,2013-09-02 11:05:00,
2013-09-02 05:10:00,59.2,54.4,29.69,South,186,0.0,0.0,84,0.00,,,0.00,0,Wunderground v.1.15,2013-09-02 11:10:00,
2013-09-02 05:15:00,59.0,54.2,29.69,South,186,0.0,0.0,84,0.00,,,0.00,0,Wunderground v.1.15,2013-09-02 11:15:00,
2013-09-02 05:20:00,58.9,54.1,29.69,South,186,0.0,0.0,84,0.00,,,0.00,0,Wunderground v.1.15,2013-09-02 11:20:00,
2013-09-02 05:25:00,58.9,54.1,29.69,South,186,0.0,0.0,84,0.00,,,0.00,0,Wunderground v.1.15,2013-09-02 11:25:00,
2013-09-02 05:30:00,58.7,54.2,29.69,South,186,0.0,0.0,85,0.00,,,0.00,0,Wunderground v.1.15,2013-09-02 11:30:00,
2013-09-02 05:35:00,58.6,54.1,29.69,South,186,0.0,0.0,85,0.00,,,0.00,0,Wunderground v.1.15,2013-09-02 11:35:00,
2013-09-02 05:40:00,58.6,54.1,29.69,South,186,0.0,0.0,85,0.00,,,0.00,0,Wunderground v.1.15,2013-09-02 11:40:00,
2013-09-02 05:45:00,58.4,53.9,29.69,South,186,0.0,0.0,85,0.00,,,0.00,0,Wunderground v.1.15,2013-09-02 11:45:00,
2013-09-02 05:50:00,58.3,54.1,29.69,South,186,0.0,0.0,86,0.00,,,0.00,0,Wunderground v.1.15,2013-09-02 11:50:00,
2013-09-02 05:55:00,58.3,54.1,29.69,South,186,0.0,0.0,86,0.00,,,0.00,0,Wunderground v.1.15,2013-09-02 11:55:00,
2013-09-02 06:00:00,58.1,53.9,29.69,South,186,0.0,0.0,86,0.00,,,0.00,0,Wunderground v.1.15,2013-09-02 12:00:00,
2013-09-02 06:05:00,58.1,53.9,29.69,South,186,0.0,0.0,86,0.00,,,0.00,0,Wunderground v.1.15,2013-09-02 12:05:00,
2013-09-02 06:09:00,58.0,53.8,29.69,South,186,0.0,0.0,86,0.00,,,0.00,0,Wunderground v.1.15,2013-09-02 12:09:00,
2013-09-02 06:14:00,57.8,54.0,29.70,South,186,0.0,0.0,87,0.00,,,0.00,0,Wunderground v.1.15,2013-09-02 12:14:00,
2013-09-02 06:19:00,57.8,54.0,29.70,South,186,0.0,0.0,87,0.00,,,0.00,0,Wunderground v.1.15,2013-09-02 12:19:00,
2013-09-02 06:24:00,57.6,53.8,29.70,South,186,0.0,0.0,87,0.00,,,0.00,0,Wunderground v.1.15,2013-09-02 12:24:00,
2013-09-02 06:29:00,57.5,53.7,29.70,South,186,0.0,0.0,87,0.00,,,0.00,0,Wunderground v.1.15,2013-09-02 12:29:00,
2013-09-02 06:34:00,57.3,53.5,29.70,South,186,0.0,0.0,87,0.00,,,0.00,0,Wunderground v.1.15,2013-09-02 12:34:00,
2013-09-02 06:39:00,57.0,53.2,29.70,South,186,0.0,0.0,87,0.00,,,0.00,5,Wunderground v.1.15,2013-09-02 12:39:00,
2013-09-02 06:44:00,57.0,53.2,29.70,South,186,0.0,0.0,87,0.00,,,0.00,9,Wunderground v.1.15,2013-09-02 12:44:00,
2013-09-02 06:49:00,56.9,53.1,29.70,South,186,0.0,0.0,87,0.00,,,0.00,12,Wunderground v.1.15,2013-09-02 12:49:00,
2013-09-02 06:54:00,56.7,52.9,29.70,South,186,0.0,0.0,87,0.00,,,0.00,14,Wunderground v.1.15,2013-09-02 12:54:00,
2013-09-02 06:59:00,56.7,52.9,29.70,South,186,0.0,0.0,87,0.00,,,0.00,16,Wunderground v.1.15,2013-09-02 12:59:00,
2013-09-02 07:04:00,56.6,52.8,29.70,South,186,0.0,0.0,87,0.00,,,0.00,19,Wunderground v.1.15,2013-09-02 13:04:00,
2013-09-02 07:09:00,56.6,53.1,29.70,South,186,0.0,0.0,88,0.00,,,0.00,21,Wunderground v.1.15,2013-09-02 13:09:00,
2013-09-02 07:14:00,56.6,53.1,29.71,South,186,0.0,0.0,88,0.00,,,0.00,25,Wunderground v.1.15,2013-09-02 13:14:00,
2013-09-02 07:19:00,56.6,53.1,29.71,South,186,0.0,0.0,88,0.00,,,0.00,25,Wunderground v.1.15,2013-09-02 13:19:00,
2013-09-02 07:24:00,56.7,53.5,29.71,South,186,0.0,0.0,89,0.00,,,0.00,28,Wunderground v.1.15,2013-09-02 13:24:00,
2013-09-02 07:29:00,57.0,53.8,29.71,South,186,0.0,0.0,89,0.00,,,0.00,30,Wunderground v.1.15,2013-09-02 13:29:00,
2013-09-02 07:34:00,57.2,54.0,29.71,South,186,0.0,0.0,89,0.00,,,0.00,32,Wunderground v.1.15,2013-09-02 13:34:00,
2013-09-02 07:39:00,57.5,54.3,29.71,South,186,0.0,0.0,89,0.00,,,0.00,33,Wunderground v.1.15,2013-09-02 13:39:00,
2013-09-02 07:44:00,58.0,54.8,29.71,South,186,0.0,0.0,89,0.00,,,0.00,37,Wunderground v.1.15,2013-09-02 13:44:00,
2013-09-02 07:49:00,58.4,55.5,29.71,South,186,0.0,0.0,90,0.00,,,0.00,39,Wunderground v.1.15,2013-09-02 13:49:00,
2013-09-02 07:54:00,58.9,56.0,29.71,South,186,0.0,1.0,90,0.00,,,0.00,104,Wunderground v.1.15,2013-09-02 13:54:00,
2013-09-02 07:59:00,59.3,56.4,29.72,South,186,0.0,1.0,90,0.00,,,0.00,142,Wunderground v.1.15,2013-09-02 13:59:00,
2013-09-02 08:04:00,59.5,56.3,29.72,South,186,0.0,1.0,89,0.00,,,0.00,179,Wunderground v.1.15,2013-09-02 14:04:00,
2013-09-02 08:09:00,59.8,56.6,29.72,South,186,0.0,1.0,89,0.00,,,0.00,214,Wunderground v.1.15,2013-09-02 14:09:00,
2013-09-02 08:14:00,60.2,56.9,29.71,South,186,0.0,0.0,89,0.00,,,0.00,241,Wunderground v.1.15,2013-09-02 14:14:00,
2013-09-02 08:19:00,60.7,57.4,29.71,South,186,0.0,1.0,89,0.00,,,0.00,257,Wunderground v.1.15,2013-09-02 14:19:00,
2013-09-02 08:24:00,61.2,57.6,29.71,South,186,0.0,1.0,88,0.00,,,0.00,274,Wunderground v.1.15,2013-09-02 14:24:00,
2013-09-02 08:29:00,61.5,57.9,29.72,South,186,0.0,1.0,88,0.00,,,0.00,294,Wunderground v.1.15,2013-09-02 14:29:00,
2013-09-02 08:34:00,62.1,57.9,29.72,South,186,0.0,0.0,86,0.00,,,0.00,304,Wunderground v.1.15,2013-09-02 14:34:00,
2013-09-02 08:39:00,62.6,58.0,29.72,South,186,0.0,1.0,85,0.00,,,0.00,163,Wunderground v.1.15,2013-09-02 14:39:00,
2013-09-02 08:44:00,62.9,58.0,29.72,South,186,0.0,0.0,84,0.00,,,0.00,218,Wunderground v.1.15,2013-09-02 14:44:00,
2013-09-02 08:49:00,63.4,57.8,29.72,South,186,0.0,1.0,82,0.00,,,0.00,350,Wunderground v.1.15,2013-09-02 14:49:00,
2013-09-02 08:54:00,63.9,58.3,29.72,South,186,0.0,0.0,82,0.00,,,0.00,364,Wunderground v.1.15,2013-09-02 14:54:00,
2013-09-02 08:59:00,64.3,57.6,29.73,South,186,0.0,1.0,79,0.00,,,0.00,381,Wunderground v.1.15,2013-09-02 14:59:00,
2013-09-02 09:04:00,64.8,57.4,29.73,South,186,0.0,1.0,77,0.00,,,0.00,394,Wunderground v.1.15,2013-09-02 15:04:00,
2013-09-02 09:09:00,65.5,57.4,29.73,South,186,0.0,1.0,75,0.00,,,0.00,408,Wunderground v.1.15,2013-09-02 15:09:00,
2013-09-02 09:14:00,66.1,57.6,29.73,South,186,0.0,1.0,74,0.00,,,0.00,424,Wunderground v.1.15,2013-09-02 15:14:00,
2013-09-02 09:19:00,66.9,56.8,29.73,South,186,0.0,1.0,70,0.00,,,0.00,439,Wunderground v.1.15,2013-09-02 15:19:00,
2013-09-02 09:24:00,67.8,57.3,29.73,South,186,0.0,1.0,69,0.00,,,0.00,455,Wunderground v.1.15,2013-09-02 15:24:00,
2013-09-02 09:29:00,68.6,57.2,29.72,South,186,0.0,1.0,67,0.00,,,0.00,471,Wunderground v.1.15,2013-09-02 15:29:00,
2013-09-02 09:34:00,69.1,56.8,29.72,South,186,1.0,2.0,65,0.00,,,0.00,483,Wunderground v.1.15,2013-09-02 15:34:00,
2013-09-02 09:39:00,69.8,56.6,29.72,South,186,0.0,2.0,63,0.00,,,0.00,499,Wunderground v.1.15,2013-09-02 15:39:00,
2013-09-02 09:44:00,70.6,57.4,29.72,South,186,0.0,1.0,63,0.00,,,0.00,512,Wunderground v.1.15,2013-09-02 15:44:00,
2013-09-02 09:49:00,71.3,57.6,29.72,South,186,0.0,1.0,62,0.00,,,0.00,526,Wunderground v.1.15,2013-09-02 15:49:00,
2013-09-02 09:54:00,72.1,57.0,29.72,South,186,0.0,0.0,59,0.00,,,0.00,540,Wunderground v.1.15,2013-09-02 15:54:00,
2013-09-02 09:59:00,72.8,57.2,29.72,South,186,0.0,2.0,58,0.00,,,0.00,554,Wunderground v.1.15,2013-09-02 15:59:00,
2013-09-02 10:04:00,73.3,57.1,29.72,South,186,0.0,1.0,57,0.00,,,0.00,566,Wunderground v.1.15,2013-09-02 16:04:00,
2013-09-02 10:09:00,73.9,58.2,29.72,South,186,0.0,2.0,58,0.00,,,0.00,578,Wunderground v.1.15,2013-09-02 16:09:00,
2013-09-02 10:14:00,74.4,58.2,29.72,South,186,0.0,1.0,57,0.00,,,0.00,589,Wunderground v.1.15,2013-09-02 16:14:00,
2013-09-02 10:19:00,74.9,57.6,29.72,South,186,1.0,1.0,55,0.00,,,0.00,603,Wunderground v.1.15,2013-09-02 16:19:00,
2013-09-02 10:24:00,75.3,58.0,29.72,South,186,0.0,1.0,55,0.00,,,0.00,617,Wunderground v.1.15,2013-09-02 16:24:00,
2013-09-02 10:29:00,75.4,56.0,29.71,South,186,0.0,1.0,51,0.00,,,0.00,628,Wunderground v.1.15,2013-09-02 16:29:00,
2013-09-02 10:34:00,76.0,56.6,29.71,South,186,0.0,1.0,51,0.00,,,0.00,638,Wunderground v.1.15,2013-09-02 16:34:00,
2013-09-02 10:39:00,76.5,56.5,29.71,South,186,0.0,1.0,50,0.00,,,0.00,650,Wunderground v.1.15,2013-09-02 16:39:00,
2013-09-02 10:44:00,76.8,57.3,29.71,South,186,0.0,2.0,51,0.00,,,0.00,663,Wunderground v.1.15,2013-09-02 16:44:00,
2013-09-02 10:49:00,76.8,57.3,29.71,South,186,0.0,2.0,51,0.00,,,0.00,675,Wunderground v.1.15,2013-09-02 16:49:00,
2013-09-02 10:54:00,77.4,57.9,29.71,South,186,0.0,2.0,51,0.00,,,0.00,686,Wunderground v.1.15,2013-09-02 16:54:00,
2013-09-02 10:59:00,77.6,58.6,29.71,South,186,0.0,3.0,52,0.00,,,0.00,698,Wunderground v.1.15,2013-09-02 16:59:00,
2013-09-02 11:04:00,77.6,57.5,29.71,South,186,0.0,2.0,50,0.00,,,0.00,705,Wunderground v.1.15,2013-09-02 17:04:00,
2013-09-02 11:09:00,77.7,57.0,29.71,WSW,238,4.0,4.0,49,0.00,,,0.00,715,Wunderground v.1.15,2013-09-02 17:09:00,
2013-09-02 11:14:00,77.9,57.2,29.70,WSW,252,0.0,3.0,49,0.00,,,0.00,722,Wunderground v.1.15,2013-09-02 17:14:00,
2013-09-02 11:19:00,78.3,57.0,29.70,WSW,252,1.0,3.0,48,0.00,,,0.00,735,Wunderground v.1.15,2013-09-02 17:19:00,
2013-09-02 11:23:00,78.6,56.7,29.70,West,260,0.0,5.0,47,0.00,,,0.00,745,Wunderground v.1.15,2013-09-02 17:23:00,
2013-09-02 11:28:00,78.8,56.9,29.70,West,260,0.0,5.0,47,0.00,,,0.00,752,Wunderground v.1.15,2013-09-02 17:28:00,
2013-09-02 11:33:00,79.2,57.8,29.70,West,260,0.0,1.0,48,0.00,,,0.00,761,Wunderground v.1.15,2013-09-02 17:33:00,
2013-09-02 11:38:00,79.4,57.4,29.70,West,260,0.0,2.0,47,0.00,,,0.00,768,Wunderground v.1.15,2013-09-02 17:38:00,
2013-09-02 11:43:00,79.9,57.9,29.69,West,260,0.0,1.0,47,0.00,,,0.00,773,Wunderground v.1.15,2013-09-02 17:43:00,
2013-09-02 11:48:00,80.1,58.0,29.69,WNW,297,0.0,4.0,47,0.00,,,0.00,782,Wunderground v.1.15,2013-09-02 17:48:00,
2013-09-02 11:53:00,80.3,57.6,29.69,WNW,298,0.0,2.0,46,0.00,,,0.00,795,Wunderground v.1.15,2013-09-02 17:53:00,
2013-09-02 11:58:00,80.3,57.6,29.68,WNW,298,0.0,2.0,46,0.00,,,0.00,802,Wunderground v.1.15,2013-09-02 17:58:00,
2013-09-02 12:03:00,80.9,56.9,29.68,WNW,298,0.0,1.0,44,0.00,,,0.00,814,Wunderground v.1.15,2013-09-02 18:03:00,
2013-09-02 12:08:00,81.1,57.7,29.68,WNW,298,0.0,1.0,45,0.00,,,0.00,819,Wunderground v.1.15,2013-09-02 18:08:00,
2013-09-02 12:13:00,81.2,56.6,29.67,WNW,298,1.0,2.0,43,0.00,,,0.00,831,Wunderground v.1.15,2013-09-02 18:13:00,
2013-09-02 12:18:00,81.4,58.0,29.67,WNW,298,0.0,4.0,45,0.00,,,0.00,842,Wunderground v.1.15,2013-09-02 18:18:00,
2013-09-02 12:23:00,82.6,59.7,29.67,WNW,298,0.0,1.0,46,0.00,,,0.00,768,Wunderground v.1.15,2013-09-02 18:23:00,
2013-09-02 12:28:00,83.6,59.4,29.66,WNW,298,0.0,1.0,44,0.00,,,0.00,944,Wunderground v.1.15,2013-09-02 18:28:00,
2013-09-02 12:33:00,83.4,58.6,29.66,WNW,298,0.0,1.0,43,0.00,,,0.00,657,Wunderground v.1.15,2013-09-02 18:33:00,
2013-09-02 12:38:00,83.0,58.8,29.66,WNW,298,0.0,2.0,44,0.00,,,0.00,336,Wunderground v.1.15,2013-09-02 18:38:00,
2013-09-02 12:43:00,82.6,59.7,29.66,WNW,298,0.0,0.0,46,0.00,,,0.00,237,Wunderground v.1.15,2013-09-02 18:43:00,
2013-09-02 12:48:00,82.2,60.0,29.66,WNW,298,0.0,1.0,47,0.00,,,0.00,251,Wunderground v.1.15,2013-09-02 18:48:00,
2013-09-02 12:53:00,81.6,59.4,29.66,WNW,298,0.0,0.0,47,0.00,,,0.00,346,Wunderground v.1.15,2013-09-02 18:53:00,
2013-09-02 12:58:00,81.6,60.0,29.66,WNW,298,0.0,1.0,48,0.00,,,0.00,893,Wunderground v.1.15,2013-09-02 18:58:00,
2013-09-02 13:03:00,82.6,60.3,29.66,WNW,298,0.0,3.0,47,0.00,,,0.00,860,Wunderground v.1.15,2013-09-02 19:03:00,
2013-09-02 13:08:00,83.0,58.2,29.66,WNW,298,0.0,3.0,43,0.00,,,0.00,849,Wunderground v.1.15,2013-09-02 19:08:00,
2013-09-02 13:13:00,83.4,59.2,29.65,WNW,298,0.0,1.0,44,0.00,,,0.00,849,Wunderground v.1.15,2013-09-02 19:13:00,
2013-09-02 13:18:00,83.6,60.0,29.65,WNW,298,0.0,2.0,45,0.00,,,0.00,854,Wunderground v.1.15,2013-09-02 19:18:00,
2013-09-02 13:23:00,84.0,57.8,29.65,WNW,298,0.0,1.0,41,0.00,,,0.00,854,Wunderground v.1.15,2013-09-02 19:23:00,
2013-09-02 13:28:00,84.5,56.1,29.65,WNW,298,0.0,2.0,38,0.00,,,0.00,863,Wunderground v.1.15,2013-09-02 19:28:00,
2013-09-02 13:33:00,86.3,57.0,29.65,WNW,297,0.0,3.0,37,0.00,,,0.00,875,Wunderground v.1.15,2013-09-02 19:33:00,
2013-09-02 13:38:00,86.3,56.2,29.65,WNW,297,0.0,3.0,36,0.00,,,0.00,881,Wunderground v.1.15,2013-09-02 19:38:00,
2013-09-02 13:43:00,87.2,56.2,29.65,WNW,283,2.0,4.0,35,0.00,,,0.00,877,Wunderground v.1.15,2013-09-02 19:43:00,
2013-09-02 13:48:00,87.6,57.3,29.65,West,281,1.0,4.0,36,0.00,,,0.00,872,Wunderground v.1.15,2013-09-02 19:48:00,
2013-09-02 13:53:00,88.0,56.9,29.65,West,281,0.0,1.0,35,0.00,,,0.00,867,Wunderground v.1.15,2013-09-02 19:53:00,
2013-09-02 13:58:00,87.6,58.1,29.64,West,281,0.0,3.0,37,0.00,,,0.00,877,Wunderground v.1.15,2013-09-02 19:58:00,
2013-09-02 14:03:00,87.2,57.0,29.64,WNW,290,0.0,4.0,36,0.00,,,0.00,851,Wunderground v.1.15,2013-09-02 20:03:00,
2013-09-02 14:08:00,87.6,54.1,29.64,WNW,290,0.0,4.0,32,0.00,,,0.00,837,Wunderground v.1.15,2013-09-02 20:08:00,
2013-09-02 14:13:00,88.0,53.6,29.64,WNW,290,1.0,3.0,31,0.00,,,0.00,824,Wunderground v.1.15,2013-09-02 20:13:00,
2013-09-02 14:18:00,88.0,55.3,29.64,WSW,251,0.0,4.0,33,0.00,,,0.00,816,Wunderground v.1.15,2013-09-02 20:18:00,
2013-09-02 14:23:00,87.8,54.3,29.64,SSE,157,0.0,5.0,32,0.00,,,0.00,805,Wunderground v.1.15,2013-09-02 20:23:00,
2013-09-02 14:28:00,88.6,54.1,29.63,SSE,147,0.0,5.0,31,0.00,,,0.00,809,Wunderground v.1.15,2013-09-02 20:28:00,
2013-09-02 14:33:00,88.6,54.1,29.63,SE,136,0.0,4.0,31,0.00,,,0.00,807,Wunderground v.1.15,2013-09-02 20:33:00,
2013-09-02 14:38:00,88.8,55.1,29.63,SE,132,2.0,5.0,32,0.00,,,0.00,828,Wunderground v.1.15,2013-09-02 20:38:00,
2013-09-02 14:43:00,89.3,54.7,29.62,ENE,74,0.0,4.0,31,0.00,,,0.00,849,Wunderground v.1.15,2013-09-02 20:43:00,
2013-09-02 14:48:00,89.9,52.4,29.62,ENE,74,1.0,4.0,28,0.00,,,0.00,828,Wunderground v.1.15,2013-09-02 20:48:00,
2013-09-02 14:53:00,89.9,52.4,29.62,ENE,74,0.0,3.0,28,0.00,,,0.00,826,Wunderground v.1.15,2013-09-02 20:53:00,
2013-09-02 14:58:00,90.3,51.8,29.62,East,97,0.0,6.0,27,0.00,,,0.00,817,Wunderground v.1.15,2013-09-02 20:58:00,
2013-09-02 15:03:00,90.1,50.6,29.62,ESE,109,1.0,4.0,26,0.00,,,0.00,798,Wunderground v.1.15,2013-09-02 21:03:00,
2013-09-02 15:08:00,90.3,49.7,29.62,East,100,0.0,5.0,25,0.00,,,0.00,780,Wunderground v.1.15,2013-09-02 21:08:00,
2013-09-02 15:13:00,90.1,49.5,29.61,East,100,0.0,2.0,25,0.00,,,0.00,765,Wunderground v.1.15,2013-09-02 21:13:00,
2013-09-02 15:18:00,90.1,48.4,29.61,East,100,0.0,4.0,24,0.00,,,0.00,759,Wunderground v.1.15,2013-09-02 21:18:00,
2013-09-02 15:23:00,90.5,50.9,29.61,East,100,1.0,1.0,26,0.00,,,0.00,772,Wunderground v.1.15,2013-09-02 21:23:00,
2013-09-02 15:28:00,90.3,48.6,29.61,East,100,0.0,3.0,24,0.00,,,0.00,784,Wunderground v.1.15,2013-09-02 21:28:00,
2013-09-02 15:33:00,90.5,50.9,29.61,East,99,0.0,2.0,26,0.00,,,0.00,784,Wunderground v.1.15,2013-09-02 21:33:00,
2013-09-02 15:38:00,90.7,52.1,29.61,ESE,108,0.0,4.0,27,0.00,,,0.00,779,Wunderground v.1.15,2013-09-02 21:38:00,
2013-09-02 15:43:00,90.1,52.6,29.61,SE,140,4.0,6.0,28,0.00,,,0.00,788,Wunderground v.1.15,2013-09-02 21:43:00,
2013-09-02 15:48:00,89.5,52.1,29.61,SW,234,3.0,7.0,28,0.00,,,0.00,160,Wunderground v.1.15,2013-09-02 21:48:00,
2013-09-02 15:53:00,88.8,51.5,29.61,SW,233,0.0,4.0,28,0.00,,,0.00,118,Wunderground v.1.15,2013-09-02 21:53:00,
2013-09-02 15:58:00,88.2,51.0,29.61,SW,233,1.0,4.0,28,0.00,,,0.00,114,Wunderground v.1.15,2013-09-02 21:58:00,
2013-09-02 16:03:00,87.6,52.3,29.61,SW,233,0.0,1.0,30,0.00,,,0.00,120,Wunderground v.1.15,2013-09-02 22:03:00,
2013-09-02 16:08:00,86.7,51.6,29.61,SW,233,0.0,1.0,30,0.00,,,0.00,123,Wunderground v.1.15,2013-09-02 22:08:00,
2013-09-02 16:13:00,86.1,52.8,29.60,SW,233,0.0,1.0,32,0.00,,,0.00,134,Wunderground v.1.15,2013-09-02 22:13:00,
2013-09-02 16:18:00,85.3,54.5,29.60,SW,233,0.0,1.0,35,0.00,,,0.00,162,Wunderground v.1.15,2013-09-02 22:18:00,
2013-09-02 16:23:00,84.9,55.7,29.60,SW,233,0.0,0.0,37,0.00,,,0.00,146,Wunderground v.1.15,2013-09-02 22:23:00,
2013-09-02 16:28:00,84.3,55.9,29.59,SW,233,0.0,0.0,38,0.00,,,0.00,135,Wunderground v.1.15,2013-09-02 22:28:00,
2013-09-02 16:33:00,84.0,54.9,29.59,SW,233,0.0,0.0,37,0.00,,,0.00,118,Wunderground v.1.15,2013-09-02 22:33:00,
2013-09-02 16:38:00,83.6,55.3,29.59,SW,233,0.0,0.0,38,0.00,,,0.00,130,Wunderground v.1.15,2013-09-02 22:38:00,
2013-09-02 16:43:00,83.2,57.1,29.58,SW,233,0.0,0.0,41,0.00,,,0.00,158,Wunderground v.1.15,2013-09-02 22:43:00,
2013-09-02 16:48:00,82.8,58.7,29.58,SW,233,0.0,0.0,44,0.00,,,0.00,193,Wunderground v.1.15,2013-09-02 22:48:00,
2013-09-02 16:53:00,82.8,58.0,29.58,SW,233,0.0,1.0,43,0.00,,,0.00,209,Wunderground v.1.15,2013-09-02 22:53:00,
2013-09-02 16:58:00,83.2,59.0,29.58,SW,233,0.0,1.0,44,0.00,,,0.00,195,Wunderground v.1.15,2013-09-02 22:58:00,
2013-09-02 17:03:00,83.4,61.1,29.58,SW,233,0.0,0.0,47,0.00,,,0.00,202,Wunderground v.1.15,2013-09-02 23:03:00,
2013-09-02 17:07:00,84.0,60.4,29.58,SW,233,0.0,1.0,45,0.00,,,0.00,172,Wunderground v.1.15,2013-09-02 23:07:00,
2013-09-02 17:12:00,84.3,60.0,29.58,SW,233,0.0,2.0,44,0.00,,,0.00,176,Wunderground v.1.15,2013-09-02 23:12:00,
2013-09-02 17:17:00,85.1,60.1,29.58,SW,233,0.0,2.0,43,0.00,,,0.00,165,Wunderground v.1.15,2013-09-02 23:17:00,
2013-09-02 17:22:00,85.3,52.9,29.58,SW,233,0.0,0.0,33,0.00,,,0.00,158,Wunderground v.1.15,2013-09-02 23:22:00,
2013-09-02 17:27:00,85.3,56.8,29.58,SW,233,0.0,0.0,38,0.00,,,0.00,181,Wunderground v.1.15,2013-09-02 23:27:00,
2013-09-02 17:32:00,85.1,54.4,29.57,SW,233,1.0,1.0,35,0.00,,,0.00,153,Wunderground v.1.15,2013-09-02 23:32:00,
2013-09-02 17:37:00,85.9,56.6,29.57,SW,236,0.0,3.0,37,0.00,,,0.00,139,Wunderground v.1.15,2013-09-02 23:37:00,
2013-09-02 17:42:00,86.5,54.0,29.57,SW,236,0.0,0.0,33,0.00,,,0.00,116,Wunderground v.1.15,2013-09-02 23:42:00,
2013-09-02 17:47:00,86.7,54.2,29.57,SW,236,0.0,0.0,33,0.00,,,0.00,107,Wunderground v.1.15,2013-09-02 23:47:00,
2013-09-02 17:52:00,86.5,56.4,29.57,SW,236,0.0,0.0,36,0.00,,,0.00,163,Wunderground v.1.15,2013-09-02 23:52:00,
2013-09-02 17:57:00,85.7,55.7,29.57,SW,236,0.0,0.0,36,0.00,,,0.00,88,Wunderground v.1.15,2013-09-02 23:57:00,
2013-09-02 18:02:00,85.3,56.8,29.57,SW,236,0.0,0.0,38,0.00,,,0.00,74,Wunderground v.1.15,2013-09-03 00:02:00,
2013-09-02 18:07:00,85.1,55.9,29.57,SW,236,0.0,0.0,37,0.00,,,0.00,130,Wunderground v.1.15,2013-09-03 00:07:00,
2013-09-02 18:12:00,84.7,57.0,29.57,SW,236,0.0,0.0,39,0.00,,,0.00,84,Wunderground v.1.15,2013-09-03 00:12:00,
2013-09-02 18:17:00,84.5,58.2,29.57,SW,236,0.0,0.0,41,0.00,,,0.00,47,Wunderground v.1.15,2013-09-03 00:17:00,
2013-09-02 18:22:00,84.1,59.2,29.57,SW,236,0.0,0.0,43,0.00,,,0.00,42,Wunderground v.1.15,2013-09-03 00:22:00,
2013-09-02 18:27:00,83.6,58.1,29.57,SW,236,0.0,0.0,42,0.00,,,0.00,39,Wunderground v.1.15,2013-09-03 00:27:00,
2013-09-02 18:32:00,83.0,56.9,29.57,SW,236,0.0,0.0,41,0.00,,,0.00,44,Wunderground v.1.15,2013-09-03 00:32:00,
2013-09-02 18:37:00,82.4,58.3,29.57,SW,236,0.0,0.0,44,0.00,,,0.00,58,Wunderground v.1.15,2013-09-03 00:37:00,
2013-09-02 18:42:00,81.6,60.6,29.57,SW,236,0.0,0.0,49,0.00,,,0.00,39,Wunderground v.1.15,2013-09-03 00:42:00,
2013-09-02 18:47:00,80.7,58.6,29.56,SW,236,0.0,0.0,47,0.00,,,0.00,102,Wunderground v.1.15,2013-09-03 00:47:00,
2013-09-02 18:52:00,79.9,57.9,29.56,SW,236,0.0,0.0,47,0.00,,,0.00,105,Wunderground v.1.15,2013-09-03 00:52:00,
2013-09-02 18:57:00,79.2,57.2,29.56,SW,236,0.0,0.0,47,0.00,,,0.00,76,Wunderground v.1.15,2013-09-03 00:57:00,
2013-09-02 19:02:00,79.2,59.5,29.55,SW,236,0.0,0.0,51,0.00,,,0.00,16,Wunderground v.1.15,2013-09-03 01:02:00,
2013-09-02 19:07:00,79.2,56.6,29.55,SW,236,0.0,0.0,46,0.00,,,0.00,12,Wunderground v.1.15,2013-09-03 01:07:00,
2013-09-02 19:12:00,79.0,58.2,29.55,SW,236,0.0,0.0,49,0.00,,,0.00,11,Wunderground v.1.15,2013-09-03 01:12:00,
2013-09-02 19:17:00,78.6,57.3,29.55,SW,236,0.0,0.0,48,0.00,,,0.00,9,Wunderground v.1.15,2013-09-03 01:17:00,
2013-09-02 19:22:00,78.1,55.6,29.55,SW,236,0.0,0.0,46,0.00,,,0.00,5,Wunderground v.1.15,2013-09-03 01:22:00,
2013-09-02 19:27:00,77.6,55.8,29.55,SW,236,0.0,0.0,47,0.00,,,0.00,0,Wunderground v.1.15,2013-09-03 01:27:00,
2013-09-02 19:32:00,76.8,55.0,29.56,SW,236,0.0,0.0,47,0.00,,,0.00,0,Wunderground v.1.15,2013-09-03 01:32:00,
2013-09-02 19:37:00,76.3,54.6,29.56,SW,236,0.0,0.0,47,0.00,,,0.00,0,Wunderground v.1.15,2013-09-03 01:37:00,
2013-09-02 19:42:00,75.6,54.5,29.56,SW,236,0.0,0.0,48,0.00,,,0.00,0,Wunderground v.1.15,2013-09-03 01:42:00,
2013-09-02 19:47:00,75.3,54.8,29.56,SW,236,0.0,0.0,49,0.00,,,0.00,0,Wunderground v.1.15,2013-09-03 01:47:00,
2013-09-02 19:52:00,74.9,54.4,29.56,SW,236,0.0,0.0,49,0.00,,,0.00,0,Wunderground v.1.15,2013-09-03 01:52:00,
2013-09-02 19:57:00,74.4,52.9,29.56,SW,236,0.0,0.0,47,0.00,,,0.00,0,Wunderground v.1.15,2013-09-03 01:57:00,
2013-09-02 20:02:00,74.0,51.9,29.56,SW,236,0.0,0.0,46,0.00,,,0.00,0,Wunderground v.1.15,2013-09-03 02:02:00,
2013-09-02 20:07:00,73.7,52.8,29.56,SW,236,0.0,0.0,48,0.00,,,0.00,0,Wunderground v.1.15,2013-09-03 02:07:00,
2013-09-02 20:12:00,73.5,52.0,29.56,SW,236,0.0,0.0,47,0.00,,,0.00,0,Wunderground v.1.15,2013-09-03 02:12:00,
2013-09-02 20:17:00,73.2,51.2,29.57,SW,236,0.0,0.0,46,0.00,,,0.00,0,Wunderground v.1.15,2013-09-03 02:17:00,
2013-09-02 20:22:00,73.2,50.0,29.57,SW,236,0.0,0.0,44,0.00,,,0.00,0,Wunderground v.1.15,2013-09-03 02:22:00,
2013-09-02 20:27:00,73.2,50.6,29.57,SW,236,0.0,0.0,45,0.00,,,0.00,0,Wunderground v.1.15,2013-09-03 02:27:00,
2013-09-02 20:32:00,73.2,49.4,29.57,SW,234,0.0,3.0,43,0.00,,,0.00,0,Wunderground v.1.15,2013-09-03 02:32:00,
2013-09-02 20:37:00,73.3,48.8,29.57,SW,234,0.0,3.0,42,0.00,,,0.00,0,Wunderground v.1.15,2013-09-03 02:37:00,
2013-09-02 20:42:00,73.5,49.0,29.57,SW,234,0.0,0.0,42,0.00,,,0.00,0,Wunderground v.1.15,2013-09-03 02:42:00,
2013-09-02 20:47:00,73.5,49.6,29.57,SW,234,0.0,0.0,43,0.00,,,0.00,0,Wunderground v.1.15,2013-09-03 02:47:00,
2013-09-02 20:52:00,73.7,50.4,29.57,SW,234,0.0,1.0,44,0.00,,,0.00,0,Wunderground v.1.15,2013-09-03 02:52:00,
2013-09-02 20:57:00,73.5,49.0,29.57,SW,234,0.0,1.0,42,0.00,,,0.00,0,Wunderground v.1.15,2013-09-03 02:57:00,
2013-09-02 21:02:00,73.3,48.8,29.57,SW,234,0.0,0.0,42,0.00,,,0.00,0,Wunderground v.1.15,2013-09-03 03:02:00,
2013-09-02 21:07:00,73.3,49.4,29.57,SW,234,0.0,0.0,43,0.00,,,0.00,0,Wunderground v.1.15,2013-09-03 03:07:00,
2013-09-02 21:12:00,73.0,49.2,29.57,SW,234,0.0,0.0,43,0.00,,,0.00,0,Wunderground v.1.15,2013-09-03 03:12:00,
2013-09-02 21:17:00,72.7,48.9,29.58,SW,234,0.0,0.0,43,0.00,,,0.00,0,Wunderground v.1.15,2013-09-03 03:17:00,
2013-09-02 21:22:00,72.3,49.2,29.58,SW,234,0.0,0.0,44,0.00,,,0.00,0,Wunderground v.1.15,2013-09-03 03:22:00,
2013-09-02 21:27:00,72.1,49.0,29.58,SW,234,0.0,0.0,44,0.00,,,0.00,0,Wunderground v.1.15,2013-09-03 03:27:00,
2013-09-02 21:32:00,72.0,48.9,29.58,SW,234,0.0,0.0,44,0.00,,,0.00,0,Wunderground v.1.15,2013-09-03 03:32:00,
2013-09-02 21:37:00,71.8,49.3,29.58,SW,234,0.0,0.0,45,0.00,,,0.00,0,Wunderground v.1.15,2013-09-03 03:37:00,
2013-09-02 21:42:00,71.6,49.7,29.58,SW,234,0.0,0.0,46,0.00,,,0.00,0,Wunderground v.1.15,2013-09-03 03:42:00,
2013-09-02 21:47:00,71.5,50.2,29.58,SW,234,0.0,0.0,47,0.00,,,0.00,0,Wunderground v.1.15,2013-09-03 03:47:00,
2013-09-02 21:52:00,71.3,50.0,29.58,SW,234,0.0,0.0,47,0.00,,,0.00,0,Wunderground v.1.15,2013-09-03 03:52:00,
2013-09-02 21:57:00,70.9,50.2,29.58,SW,234,0.0,0.0,48,0.00,,,0.00,0,Wunderground v.1.15,2013-09-03 03:57:00,
2013-09-02 22:01:00,70.6,50.5,29.58,SW,234,0.0,0.0,49,0.00,,,0.00,0,Wunderground v.1.15,2013-09-03 04:01:00,
2013-09-02 22:06:00,70.3,51.3,29.58,SW,234,0.0,0.0,51,0.00,,,0.00,0,Wunderground v.1.15,2013-09-03 04:06:00,
2013-09-02 22:11:00,69.9,52.5,29.58,SW,234,0.0,0.0,54,0.00,,,0.00,0,Wunderground v.1.15,2013-09-03 04:11:00,
2013-09-02 22:16:00,69.8,52.9,29.58,SW,234,0.0,0.0,55,0.00,,,0.00,0,Wunderground v.1.15,2013-09-03 04:16:00,
2013-09-02 22:21:00,69.4,53.5,29.58,SW,234,0.0,0.0,57,0.00,,,0.00,0,Wunderground v.1.15,2013-09-03 04:21:00,
2013-09-02 22:26:00,69.3,54.4,29.58,SW,234,0.0,0.0,59,0.00,,,0.00,0,Wunderground v.1.15,2013-09-03 04:26:00,
2013-09-02 22:31:00,69.1,54.2,29.58,SW,234,0.0,0.0,59,0.00,,,0.00,0,Wunderground v.1.15,2013-09-03 04:31:00,
2013-09-02 22:36:00,68.8,54.3,29.58,SW,234,0.0,0.0,60,0.00,,,0.00,0,Wunderground v.1.15,2013-09-03 04:36:00,
2013-09-02 22:41:00,68.6,54.2,29.58,SW,234,0.0,1.0,60,0.00,,,0.00,0,Wunderground v.1.15,2013-09-03 04:41:00,
2013-09-02 22:46:00,68.1,52.3,29.58,SW,234,0.0,1.0,57,0.00,,,0.00,0,Wunderground v.1.15,2013-09-03 04:46:00,
2013-09-02 22:51:00,67.9,51.1,29.58,SW,234,0.0,0.0,55,0.00,,,0.00,0,Wunderground v.1.15,2013-09-03 04:51:00,
2013-09-02 22:56:00,68.1,51.3,29.58,SW,234,0.0,0.0,55,0.00,,,0.00,0,Wunderground v.1.15,2013-09-03 04:56:00,
2013-09-02 23:01:00,68.1,51.3,29.59,SW,234,0.0,0.0,55,0.00,,,0.00,0,Wunderground v.1.15,2013-09-03 05:01:00,
2013-09-02 23:06:00,68.1,51.8,29.59,SW,234,0.0,0.0,56,0.00,,,0.00,0,Wunderground v.1.15,2013-09-03 05:06:00,
2013-09-02 23:11:00,67.9,52.1,29.59,SW,234,0.0,0.0,57,0.00,,,0.00,0,Wunderground v.1.15,2013-09-03 05:11:00,
2013-09-02 23:16:00,67.8,52.5,29.59,SW,234,0.0,0.0,58,0.00,,,0.00,0,Wunderground v.1.15,2013-09-03 05:16:00,
2013-09-02 23:21:00,67.6,52.3,29.59,SW,234,0.0,0.0,58,0.00,,,0.00,0,Wunderground v.1.15,2013-09-03 05:21:00,
2013-09-02 23:26:00,67.4,52.1,29.59,SW,234,0.0,0.0,58,0.00,,,0.00,0,Wunderground v.1.15,2013-09-03 05:26:00,
2013-09-02 23:31:00,67.3,52.0,29.59,SW,234,0.0,0.0,58,0.00,,,0.00,0,Wunderground v.1.15,2013-09-03 05:31:00,
2013-09-02 23:35:00,67.3,52.5,29.59,SW,234,0.0,0.0,59,0.00,,,0.00,0,Wunderground v.1.15,2013-09-03 05:35:00,
2013-09-02 23:40:00,67.3,52.9,29.59,SW,234,0.0,0.0,60,0.00,,,0.00,0,Wunderground v.1.15,2013-09-03 05:40:00,
2013-09-02 23:45:00,67.1,51.8,29.59,SW,234,0.0,0.0,58,0.00,,,0.00,0,Wunderground v.1.15,2013-09-03 05:45:00,
2013-09-02 23:50:00,67.1,52.3,29.59,SW,234,0.0,0.0,59,0.00,,,0.00,0,Wunderground v.1.15,2013-09-03 05:50:00,
2013-09-02 23:55:00,66.9,52.6,29.59,SW,234,0.0,0.0,60,0.00,,,0.00,0,Wunderground v.1.15,2013-09-03 05:55:00,